Theta_e
287 280 277 279 280 282 280 280 278 280 285 282 281 281 284 286 286 286 286 287 288 289 292 291 291 292 293 294 295 296 296 297 298 304 310 315 320 322 324 325 325 324 324 323
281 278 282 284 284 282 280 278 274 280 284 282 281 280 284 285 285 286 286 287 287 288 290 291 292 294 296 297 298 299 299 299 299 300 307 312 317 320 322 324 324 323 324 323
278 282 285 283 280 280 279 277 278 277 281 281 280 276 279 283 285 287 288 288 288 288 288 291 295 294 295 295 296 297 299 300 300 300 301 303 310 315 318 320 321 322 323 323
280 284 283 281 279 281 278 282 281 280 275 266 279 267 276 281 283 285 286 286 286 287 291 292 293 293 293 294 294 295 297 298 300 300 300 299 300 301 305 317 320 321 322 322
279 280 280 280 280 283 279 283 281 280 272 268 268 267 273 280 280 282 285 286 286 288 289 291 292 293 294 293 293 294 295 297 298 299 300 300 300 302 306 312 316 318 321 322
280 285 283 281 284 284 284 282 279 278 270 264 268 269 272 274 278 281 284 286 287 287 289 290 292 293 293 294 294 294 294 296 298 298 299 300 300 300 302 308 312 312 311 319
279 281 283 285 279 283 281 275 263 263 261 265 274 266 274 279 280 282 283 284 286 287 287 287 289 291 292 292 291 292 294 295 296 297 297 297 298 300 300 302 306 311 310 314
272 271 281 284 280 278 278 275 265 260 262 265 275 268 274 281 283 284 284 285 286 287 287 288 290 290 292 291 291 293 294 294 295 295 295 296 297 298 300 301 302 307 308 308
273 274 281 283 283 281 278 275 278 264 260 265 267 273 279 282 281 283 283 284 284 285 286 288 289 290 291 290 291 293 293 293 293 294 295 295 296 296 297 298 300 302 308 307
278 271 279 280 282 281 279 281 271 267 260 256 264 266 273 277 278 280 281 282 283 285 286 287 288 289 290 291 292 292 293 293 293 293 294 295 295 295 296 299 300 301 309 308
279 275 275 280 277 275 276 275 276 273 270 263 262 271 277 277 278 280 281 283 284 285 286 287 288 289 290 291 291 291 291 290 290 291 292 294 295 296 296 296 300 305 307 303
281 276 268 273 278 280 280 277 277 267 266 270 270 271 281 282 281 281 282 283 284 285 286 288 288 290 290 290 289 289 289 289 289 291 292 293 294 295 296 295 298 305 303 300
281 269 262 269 274 279 277 278 280 276 273 270 264 271 280 281 282 283 282 283 284 285 286 287 287 287 288 288 287 287 288 289 290 291 291 291 293 295 295 296 299 305 299 298
284 272 269 269 271 275 274 275 278 275 264 270 272 274 277 279 279 281 282 283 284 284 285 286 286 287 286 286 286 286 287 289 289 290 291 294 294 295 295 296 299 299 297 297
278 267 271 273 275 274 275 275 275 273 274 267 273 272 276 279 279 281 282 283 282 283 284 285 285 285 285 285 286 286 287 288 289 292 296 296 296 296 296 297 296 294 295 294
278 265 268 265 271 272 272 274 275 275 275 274 274 273 280 281 281 280 282 281 280 282 284 285 285 284 284 284 285 286 286 286 290 293 293 294 294 294 293 292 291 290 290 290
277 269 263 262 268 265 266 270 273 273 274 273 270 276 279 278 280 281 279 280 281 282 284 284 284 284 284 284 285 285 285 287 288 290 290 291 291 289 289 289 288 287 286 287
273 269 264 261 260 260 274 274 274 273 275 276 276 277 279 279 281 281 282 280 282 283 284 284 284 284 284 285 285 286 286 285 285 285 286 287 287 287 287 287 286 286 286 286
275 273 260 261 256 267 274 276 273 271 273 277 276 278 279 279 278 279 283 282 283 284 284 284 285 284 284 284 284 285 284 285 284 284 284 285 286 285 286 285 285 286 285 285
278 275 267 259 257 259 271 277 278 276 268 276 278 279 278 277 275 278 281 282 284 284 284 284 285 284 284 284 284 283 283 283 283 284 284 285 285 285 284 285 285 285 286 285
272 271 270 258 259 265 274 278 277 266 273 279 280 279 278 276 277 280 281 283 285 284 284 286 285 283 284 284 284 283 283 282 284 284 284 284 285 284 285 285 285 285 285 285
270 268 268 265 260 264 277 275 274 277 279 280 280 279 279 279 279 280 281 283 283 283 284 285 284 284 284 285 284 283 282 284 284 284 284 284 284 284 285 285 285 285 285 285
269 273 269 271 271 277 278 278 281 281 280 280 279 279 280 279 278 279 280 281 281 282 283 285 284 284 284 285 284 283 284 285 284 284 284 284 284 285 285 285 284 284 285 284
272 275 271 272 277 277 277 280 280 280 280 280 280 279 279 278 278 280 281 281 281 282 282 284 284 284 283 284 284 284 284 285 285 284 284 284 285 285 285 286 286 285 284 283
274 275 273 272 277 277 279 278 281 281 280 279 279 279 279 278 280 279 280 280 280 280 281 282 282 282 282 283 284 284 285 286 285 284 284 284 284 284 283 283 284 282 281 285
275 274 274 274 278 278 278 278 280 278 278 279 279 277 278 280 280 279 279 279 279 279 279 280 281 281 280 279 280 282 284 285 285 282 282 282 282 281 281 281 282 286 285 286
Wind_Speed
2 5 3 4 2 3 2 3 7 7 6 8 8 13 22 22 11 12 13 11 11 13 15 10 9 9 7 6 5 5 4 6 3 3 4 4 6 10 10 14 22 23 20 21
5 2 4 2 1 1 2 4 7 8 2 7 13 22 21 11 7 6 9 11 10 8 10 9 6 6 5 3 4 6 6 6 4 3 4 3 4 4 8 8 15 21 23 22
4 2 4 2 3 4 3 4 4 8 6 5 13 9 7 4 3 7 9 9 8 7 10 8 6 4 4 5 5 5 8 10 6 6 3 4 4 4 5 7 7 15 21 22
2 0 2 1 2 4 4 3 4 7 7 3 7 10 9 5 9 8 10 9 8 7 4 2 4 6 6 7 6 7 8 8 10 8 6 7 7 9 6 7 8 10 19 21
2 4 2 1 5 5 7 3 7 4 3 4 6 3 12 4 8 10 9 9 7 7 7 7 8 8 7 6 6 6 8 12 16 16 13 10 12 9 8 6 8 10 14 22
4 2 3 5 1 3 4 5 4 3 3 4 4 5 10 4 8 5 6 8 9 9 9 10 9 8 9 8 8 8 15 18 17 17 17 16 15 15 9 9 7 8 10 12
4 3 1 3 2 3 4 5 6 8 6 7 2 3 15 13 10 9 15 12 10 9 9 10 10 9 13 11 10 11 15 18 16 18 17 17 17 15 16 13 10 10 6 8
3 7 6 4 5 4 2 5 7 7 3 7 2 10 12 9 10 10 11 9 9 10 11 13 15 15 16 13 13 14 18 19 16 17 19 17 19 13 12 12 10 9 9 7
4 6 1 3 3 7 3 3 3 4 1 3 5 8 14 14 6 7 10 9 12 15 14 21 21 19 14 15 16 16 19 19 19 19 18 19 17 16 15 18 14 11 12 12
4 3 1 1 3 2 4 5 3 4 2 7 7 8 17 11 10 9 13 14 14 19 21 20 19 17 15 16 17 18 20 21 19 21 18 17 19 20 18 14 16 19 16 16
4 4 3 1 8 9 4 3 2 4 5 6 6 15 10 9 7 15 13 15 23 22 23 22 20 15 17 19 20 20 20 22 21 20 20 19 18 19 20 17 15 14 15 17
5 4 4 12 1 0 4 7 7 7 7 5 3 21 3 13 9 11 23 21 22 22 22 18 17 20 21 21 17 20 19 20 19 19 19 20 19 19 19 20 19 16 16 17
7 2 4 9 5 3 5 6 6 2 3 10 4 18 4 9 27 24 22 22 21 21 20 19 21 20 19 19 18 18 18 17 18 18 19 21 21 20 19 18 19 16 16 16
7 4 8 8 5 3 5 6 6 7 4 6 21 33 36 29 25 25 24 23 19 21 21 22 20 17 18 19 19 17 16 17 18 19 20 22 22 20 18 17 11 17 18 17
6 6 3 8 9 6 15 16 17 18 22 12 35 18 32 28 26 25 22 19 20 20 22 22 19 18 17 17 16 16 16 16 17 19 8 10 15 17 17 15 15 15 17 15
4 4 2 5 6 7 17 22 21 25 23 20 26 33 29 29 21 17 20 15 17 23 23 21 19 17 16 17 16 16 14 15 15 9 3 7 12 15 16 16 16 16 15 16
8 5 4 8 4 8 13 10 12 6 6 9 12 16 15 14 13 19 17 15 19 20 22 21 18 16 15 15 14 13 13 10 9 9 6 8 12 14 15 16 16 16 16 17
8 7 3 5 5 4 7 3 4 7 7 15 13 14 17 11 15 18 10 9 18 20 21 18 16 15 14 12 13 11 9 8 6 9 10 6 10 13 14 16 16 14 14 17
3 6 2 3 4 12 9 2 7 8 10 10 15 16 9 9 11 6 2 12 15 17 18 15 14 13 12 12 12 9 10 9 8 9 10 8 8 12 14 15 16 14 16 15
5 2 6 4 4 9 6 2 3 5 8 7 9 9 7 7 10 8 15 15 15 17 14 14 14 11 12 12 10 9 9 9 11 8 11 9 10 11 15 15 16 13 14 15
8 3 13 3 5 13 14 7 1 6 9 7 8 7 5 3 6 10 12 13 13 13 14 13 11 11 11 11 10 11 11 12 10 10 11 13 13 13 14 15 13 15 15 15
12 12 7 5 3 15 12 8 11 8 1 5 5 6 7 7 8 5 7 10 12 14 13 13 11 11 11 11 9 10 11 10 10 11 13 13 13 11 11 16 13 14 15 16
6 11 11 16 15 3 12 6 13 1 4 5 5 5 8 6 5 5 6 7 9 11 9 9 9 10 11 11 10 10 10 9 10 12 13 13 13 12 12 14 14 12 12 11
7 6 5 3 10 21 12 13 7 6 9 7 7 8 5 6 5 4 5 5 6 7 7 7 8 11 12 11 10 10 10 9 11 12 12 11 12 12 11 10 10 11 10 9
7 13 7 9 14 6 13 13 16 11 10 8 8 5 6 4 6 1 3 5 5 5 5 5 6 7 9 9 11 10 9 9 11 11 11 11 10 12 11 10 8 7 6 7
9 10 11 11 8 8 4 7 11 10 9 10 7 4 3 4 6 1 3 3 3 5 4 3 4 4 5 6 6 8 8 7 9 10 8 7 7 7 8 8 9 17 12 12
Wind_Direction
7 66 183 184 150 138 183 242 256 261 280 318 267 281 287 296 292 280 277 275 271 270 274 276 269 261 261 262 280 283 288 272 267 292 261 240 227 229 258 207 197 195 193 190
21 222 204 179 182 31 287 300 285 287 325 340 298 290 270 281 259 246 265 275 273 280 296 295 254 218 217 237 265 290 273 256 244 214 232 247 259 237 235 236 235 196 189 189
176 196 158 56 14 331 276 217 271 254 320 257 315 301 324 322 276 269 275 251 266 267 288 293 332 349 336 308 295 299 297 303 274 258 270 271 268 270 243 220 240 231 192 185
226 144 128 44 262 152 279 192 262 284 15 264 68 285 305 285 290 295 281 284 293 289 303 343 342 315 298 289 305 307 301 296 305 300 262 244 252 259 255 242 227 224 208 192
266 170 192 226 215 166 235 336 280 280 203 43 334 69 272 314 278 274 271 291 256 248 247 263 262 258 263 275 264 265 271 281 286 279 264 262 259 248 249 237 222 218 248 188
257 347 177 213 259 232 335 307 20 20 117 19 245 125 274 236 220 231 257 275 258 274 267 264 251 248 244 245 252 253 273 275 270 264 263 257 252 251 235 233 223 225 224 243
312 205 160 140 17 41 52 34 329 347 5 226 191 31 244 266 246 250 273 269 259 267 266 269 263 251 270 244 246 269 272 269 262 257 257 258 255 248 241 227 226 208 204 213
125 320 175 164 182 179 227 165 153 256 277 272 113 245 249 239 272 265 263 256 281 275 277 285 283 278 277 251 269 277 276 269 265 260 256 252 251 248 242 231 226 224 211 165
133 279 133 180 148 131 179 214 172 96 160 2 238 285 284 270 261 282 293 282 293 293 289 295 295 284 268 266 272 274 278 272 266 262 261 255 248 238 239 243 238 231 211 201
174 312 225 114 65 263 179 157 79 0 331 287 265 264 247 282 285 291 295 290 288 293 294 292 291 283 271 275 285 290 278 275 273 268 259 253 248 244 239 242 230 224 199 186
129 115 287 71 202 179 159 218 142 120 165 196 304 280 214 246 262 293 291 291 306 302 301 300 299 292 287 298 290 287 283 279 274 266 260 253 246 240 238 229 236 225 183 165
189 140 231 225 251 207 196 196 155 144 243 231 194 267 252 272 276 305 309 303 301 301 300 302 299 304 303 293 295 293 286 281 274 266 257 251 243 235 227 226 219 220 177 166
176 236 342 333 3 24 231 204 198 133 101 205 167 266 212 298 314 306 304 302 303 304 305 312 315 304 303 303 300 295 291 280 274 268 260 250 235 223 217 213 207 190 165 159
118 169 186 207 195 136 219 217 204 179 184 261 231 278 287 292 300 303 306 302 305 311 315 314 307 306 305 307 304 298 291 286 281 276 262 248 222 208 200 200 197 168 155 152
141 209 210 270 267 249 257 248 238 234 243 229 277 266 275 290 295 298 297 305 313 311 318 312 310 309 306 307 305 306 300 299 296 286 245 259 196 183 179 183 150 144 144 140
180 257 95 282 292 279 269 257 242 242 253 253 261 272 274 276 284 285 300 313 308 314 315 313 315 310 313 315 314 312 308 307 306 343 64 95 114 129 136 133 134 129 129 135
162 137 82 271 339 329 286 238 211 179 192 202 219 242 266 290 298 305 312 310 311 314 316 314 318 317 318 319 318 315 314 314 334 14 25 100 119 123 129 132 130 128 130 128
144 126 124 264 8 263 243 227 177 198 230 223 260 269 271 271 291 298 301 304 321 324 315 316 321 322 325 325 328 321 331 345 8 49 39 47 106 113 119 121 121 119 123 127
151 131 141 191 208 303 289 160 148 158 279 219 220 253 265 281 304 296 316 333 324 321 313 318 325 323 327 338 336 339 358 13 30 55 61 56 82 104 110 108 112 118 121 119
173 81 141 112 183 236 239 192 114 137 285 215 196 233 265 323 343 308 340 330 333 321 321 327 332 336 348 354 352 12 17 29 36 44 70 68 88 94 99 103 109 113 110 115
161 159 214 181 246 280 243 194 129 79 242 186 191 229 241 258 216 291 315 327 332 322 326 341 342 350 357 360 11 27 26 35 46 59 68 73 78 87 95 100 104 108 109 110
169 159 188 146 188 272 159 99 177 211 253 191 212 232 249 255 282 290 313 330 330 326 335 352 351 357 4 13 17 31 35 34 47 63 70 75 78 83 90 98 102 103 106 102
217 187 183 191 207 246 209 197 212 172 202 225 231 213 245 283 288 313 321 329 322 318 328 352 358 360 9 14 22 39 36 43 60 67 71 72 77 80 87 96 97 94 94 100
240 174 223 132 236 230 236 245 244 229 230 237 242 237 239 255 287 299 315 325 322 320 330 343 8 19 16 10 23 32 42 45 64 68 73 74 81 83 83 85 91 98 103 108
185 152 176 266 269 298 253 225 234 241 248 256 263 208 217 230 270 242 302 304 305 310 325 347 15 23 17 9 22 21 32 53 67 69 72 74 73 75 74 64 75 86 61 109
176 177 190 221 204 174 213 200 184 204 224 211 184 163 202 206 250 229 273 256 277 302 318 348 8 30 17 8 29 20 20 45 61 60 58 60 73 71 74 80 74 56 85 86